Starlink 35341

operational
NORAD ID: 66027 Int'l Des: 2025-232 Owner: SPXS Country: US Constellation: starlink
LEOCIRCULAR

About Starlink 35341

Description loading...

Live Position

Loading 3D Globe...

Upcoming Passes

Altitude History

Altitude vs Time

uPlot chart will show altitude changes over time

Two-Line Element Set

1 66027U 25232Y 25318.18438829 .00064125 00000-0 15996-2 0 9997
2 66027 53.1597 281.6559 0001238 119.3702 240.7426 15.39621837 5731
Epoch: Nov 14, 2025 • Age: 23 hours

Current Status

Altitude 447.3 km
Velocity 7.65 km/s
Sub-Earth Point 18.26°N, 178.4°E
Launch Date Oct 16, 2025
Age 29 days
Type internet

Technical Details

Classification Payload
Mass 575.00 kg
Dry Mass 530.00 kg
Total Mass 575.00 kg
Length 0.30 m
Diameter 4.10 m
Span 29.00 m
Shape Box + pan
Manufacturer SPXS
Bus Type Starlink V2MO
Phase Status In Orbit
Owner/State SPXS/US

Large Constellations

Loading constellations...